Content
SEND FEEDBACK

Daily
Averages
Monthly
Summary
United States of America

CHICAGO, ILLINOIS


Home > North America > United States > Illinois
Elevation: 674 feet     Latitude: 41 59N     Longitude: 087 54W

WEATHER
 
SELECT A DAY
Number of Records: 198,944;   Date Range: 7/8/95 - 11/27/14
 
SHARE

PRINT THIS DATA

[ ← Previous Day ]
WEATHER ALMANAC - MARCH 24, 2014
[ Next Day → ]
[ °C ]   °F
Weather ElementAverageHighLow
Temperature27.8 °F36 °F (3:52 pm)19 °F (5:52 am)
Dewpoint10.2 °F18 °F (11:52 pm)3.9 °F (10:52 am)
Humidity49.6 %71 % (2:52 am)32 % (1:52 pm)
Barometer30.28 in30.39 in (1:52 am)30.09 in (11:52 pm)
Wind Speed6.6 mph11.5 mph (4:52 pm)
Weather ElementAverage
Visibility10 mi
Wind DirectionWSW (254.3 °)

Weather ElementTotal
Precipitation---
Heating Degree Days37.5 (Base 65)
Averaged from 23 records on March 24, 2014
WEATHER CONDITIONS BREAKOUT
WIND DIRECTION BREAKOUT
WEATHER BY HOUR - MARCH 24, 2014
[ °C ]   °F
Local TimeTemperatureDewpointHumidityBarometerVisibilityWind DirectionWind SpeedGust SpeedPrecipitationEventsConditions
1:52 AM21.9 °F12.9 °F68 %30.39 in10.0 miSouth (190°)5.8 mphClear
2:52 AM21.0 °F12.9 °F71 %30.39 in10.0 miNW (310°)3.5 mphClear
3:52 AM19.9 °F10.9 °F68 %30.39 in10.0 miNW (320°)5.8 mphClear
4:52 AM19.9 °F10.0 °F65 %30.39 in10.0 miNNW (340°)5.8 mphPartly Cloudy
5:52 AM19.0 °F10.0 °F68 %30.38 in10.0 miNNW (340°)4.6 mphClear
6:52 AM19.9 °F9.0 °F62 %30.39 in10.0 miNNW (330°)5.8 mphOvercast
7:52 AM21.0 °F9.0 °F60 %30.38 in10.0 miNW (320°)5.8 mphMostly Cloudy
8:52 AM24.1 °F9.0 °F53 %30.37 in10.0 miNorth (360°)6.9 mphClear
9:52 AM26.1 °F7.0 °F44 %30.38 in10.0 miWNW (290°)6.9 mphClear
10:52 AM27.0 °F3.9 °F37 %30.36 in10.0 miWSW (250°)6.9 mphClear
11:52 AM30.0 °F5.0 °F35 %30.33 in10.0 miWest (270°)6.9 mphClear
12:52 PM30.9 °F6.1 °F35 %30.30 in10.0 miWest (270°)6.9 mphClear
1:52 PM33.1 °F6.1 °F32 %30.27 in10.0 miWest (280°)4.6 mphClear
2:52 PM34.0 °F7.0 °F32 %30.24 in10.0 miSSW (210°)4.6 mphClear
3:52 PM36.0 °F9.0 °F33 %30.22 in10.0 miVariable6.9 mphPartly Cloudy
4:52 PM35.1 °F10.0 °F35 %30.20 in10.0 miWSW (250°)11.5 mphMostly Cloudy
5:52 PM34.0 °F10.0 °F37 %30.19 in10.0 miWest (260°)9.2 mphMostly Cloudy
6:52 PM33.1 °F12.0 °F42 %30.17 in10.0 miSW (220°)10.4 mphPartly Cloudy
7:52 PM32.0 °F12.9 °F45 %30.15 in10.0 miSSW (210°)6.9 mphClear
8:52 PM30.9 °F14.0 °F50 %30.14 in10.0 miSSW (200°)6.9 mphClear
9:52 PM30.0 °F15.1 °F54 %30.12 in10.0 miSSW (200°)6.9 mphClear
10:52 PM30.0 °F15.1 °F54 %30.11 in10.0 miSSW (210°)5.8 mphClear
11:52 PM30.0 °F18.0 °F61 %30.09 in10.0 miSW (220°)5.8 mphMostly Cloudy
Hourly data recorded from KPWK, located miles away from Chicago, Illinois







STORIES FROM OUR PARTNERS